Location: Newark
(39.6172°N, 96.8533°W)
Time: 18:58:15
(UTC+00:00)

Courier 1B Rocket - All Passes

Search period start: 25 February 2020 00:00
Search period end: 06 March 2020 00:00
Orbit: 920 x 1202 km, 28.2° (Epoch: 25 February)

Date Brightness Start Highest point End Pass type
(mag) Time Alt. Az. Time Alt. Az. Time Alt. Az.
25 Feb - 05:19:08 10° SSW 05:23:39 21° SSE 05:28:13 10° ESE night (unlit)
25 Feb - 07:10:55 10° SW 07:16:14 29° S 07:21:43 10° ESE night (unlit)
25 Feb - 09:03:52 10° WSW 09:08:54 24° SSW 09:14:09 10° SE visible
25 Feb - 10:59:00 10° SW 11:01:29 12° SSW 11:04:00 10° S visible
26 Feb - 04:19:07 10° SSW 04:22:57 17° SSE 04:26:46 10° ESE night (unlit)
26 Feb - 06:10:17 10° SW 06:15:27 28° S 06:20:43 10° ESE night (unlit)
26 Feb - 08:02:56 10° WSW 08:08:07 27° S 08:13:29 10° SE night (unlit)
26 Feb - 09:56:56 10° WSW 10:00:42 16° SSW 10:04:35 10° SSE visible
27 Feb - 03:19:39 10° S 03:22:16 13° SSE 03:24:50 10° SE visible
27 Feb - 05:09:45 10° SW 05:14:42 25° S 05:19:41 10° ESE night (unlit)
27 Feb - 07:02:06 10° WSW 07:07:20 29° S 07:12:42 10° SE night (unlit)
27 Feb - 08:55:31 10° WSW 08:59:56 20° SSW 09:04:30 10° SSE night (unlit)
28 Feb - 04:09:21 10° SSW 04:13:58 21° SSE 04:18:33 10° ESE night (unlit)
28 Feb - 06:01:18 10° WSW 06:06:33 29° S 06:11:52 10° ESE night (unlit)
28 Feb - 07:54:22 10° WSW 07:59:10 23° SSW 08:04:06 10° SE night (unlit)
28 Feb - 09:50:05 10° SW 09:51:40 11° SSW 09:53:16 10° S visible
29 Feb - 03:09:11 10° SSW 03:13:15 18° SSE 03:17:14 10° ESE visible
29 Feb - 05:00:35 10° SW 05:05:48 28° S 05:10:59 10° ESE night (unlit)
29 Feb - 06:53:21 10° WSW 06:58:26 26° S 07:03:34 10° SE night (unlit)
29 Feb - 08:47:35 10° SW 08:50:57 15° SSW 08:54:22 10° SSE night (unlit)
01 Mar - 02:09:28 10° S 02:12:32 14° SSE 02:15:31 10° SE visible
01 Mar - 03:59:56 10° SW 04:05:02 25° S 04:10:02 10° ESE visible
01 Mar - 05:52:26 10° WSW 05:57:40 28° S 06:02:53 10° SE night (unlit)
01 Mar - 07:46:02 10° WSW 07:50:14 19° SSW 07:54:29 10° SSE night (unlit)
02 Mar - 02:59:24 10° SW 03:04:17 22° SSE 03:09:00 10° ESE visible
02 Mar - 04:51:33 10° WSW 04:56:54 29° S 05:02:10 10° ESE night (unlit)
02 Mar - 06:44:47 10° WSW 06:49:30 23° SSW 06:54:14 10° SE night (unlit)
03 Mar - 01:59:05 10° SSW 02:03:31 19° SSE 02:07:48 10° ESE visible
03 Mar - 03:50:43 10° SW 03:56:08 28° S 04:01:23 10° ESE visible
03 Mar - 05:43:40 10° WSW 05:48:46 26° S 05:53:49 10° SE night (unlit)
03 Mar - 07:38:08 10° SW 07:41:14 14° SSW 07:44:20 10° S night (unlit)
04 Mar - 00:59:07 10° S 01:02:45 15° SSE 01:06:14 10° SE visible
04 Mar - 02:49:56 10° SW 02:55:21 26° S 03:00:31 10° ESE visible
04 Mar - 04:42:38 10° WSW 04:48:00 28° S 04:53:15 10° SE visible
04 Mar - 06:36:25 10° WSW 06:40:32 18° SSW 06:44:39 10° SSE night (unlit)
05 Mar - 00:00:10 10° S 00:01:57 11° SSE 00:03:43 10° SE daylight
05 Mar - 01:49:17 10° SW 01:54:32 24° SSE 01:59:32 10° ESE visible
05 Mar - 03:41:38 10° WSW 03:47:13 30° S 03:52:36 10° ESE visible
05 Mar - 05:35:02 10° WSW 05:39:50 23° SSW 05:44:32 10° SE night (unlit)
